Regional Weather Roundup
Issued by NWS

Home | Current Version | Previous Version | Text Only | Print | Product List | Glossary On
Versions: 1 2 3 4 5 6 7 8 9 10 11 12 13 14 15 16 17 18 19 20 21 22 23 24 25 26 27 28 29 30 31 32 33 34 35 36 37 38 39 40 41 42 43 44 45 46 47 48 49 50
000
ASUS44 KBMX 260110
RWRAL

ALABAMA REGIONAL WEATHER ROUNDUP
NATIONAL WEATHER SERVICE BIRMINGHAM AL
700 PM CST SUN JAN 25 2015

NOTE: "FAIR" INDICATES FEW OR NO CLOUDS BELOW 12,000 FEET
WITH NO SIGNIFICANT WEATHER AND/OR OBSTRUCTIONS TO VISIBILITY.

THE REMARK "TC" DENOTES TEMPERATURE IN DEGREES CELSIUS.

ALZ001>011-014-016>018-020-260200-
NORTH ALABAMA

CITY           SKY/WX    TMP DP  RH WIND       PRES   REMARKS
MUSCLE SHOALS  LGT RAIN  45  39  79 NW10G20   29.80R
HUNTSVILLE     PTCLDY    48  38  68 SW7       29.73R
DECATUR        CLEAR     50  40  68 SW8       29.74R
HALEYVILLE     HVY RAIN  42  39  89 NW10G21   29.82R FOG
GADSDEN        CLOUDY    48  41  76 S9        29.78R
$$

ALZ012-013-022-023-030>036-040>044-260200-
WEST CENTRAL ALABAMA

CITY           SKY/WX    TMP DP  RH WIND       PRES   REMARKS
TUSCALOOSA     PTCLDY    52  41  66 W8        29.80R
$$

ALZ015-024>027-033>036-040>044-260200-
CENTRAL ALABAMA

CITY           SKY/WX    TMP DP  RH WIND       PRES   REMARKS
BIRMINGHAM     CLOUDY    48  43  82 S8        29.80R
MONTGOMERY     CLEAR     56  38  50 S7        29.79F
SHELBY CO ARPT LGT RAIN  49  43  80 SW8G21    29.80R
MAXWELL AFB    CLEAR     54  39  57 S7        29.78F
GREENVILLE     FAIR      55  35  47 SW8       29.81S
$$

ALZ019-021-028-029-037-038-045>048-260200-
EAST CENTRAL ALABAMA

CITY           SKY/WX    TMP DP  RH WIND       PRES   REMARKS
ANNISTON       LGT RAIN  53  40  61 SW9       29.76R
ALEXANDER CITY PTCLDY    57  34  42 S6        29.77F
AUBURN         MOCLDY    52  30  43 SW10      29.82S
$$

ALZ051>064-260200-
SOUTHWEST ALABAMA

CITY           SKY/WX    TMP DP  RH WIND       PRES   REMARKS
MOBILE         CLEAR     55  37  50 SW8       29.86R
BROOKLEY FIELD CLEAR     57  43  59 VRB5      29.88R
EVERGREEN      CLEAR     54  44  69 S9        29.84S
$$

ALZ049-050-065>069-260200-
SOUTHEAST ALABAMA

CITY           SKY/WX    TMP DP  RH WIND       PRES   REMARKS
DOTHAN         CLEAR     56  44  64 SW17G23   29.88R
OZARK          CLEAR     55  44  67 SW12      29.85R
TROY           CLEAR     53  35  50 SW8       29.83R
EUFAULA        FAIR      56  37  49 SW9       29.81R
$$


USA.gov is the U.S. government's official web portal to all federal, state and local government web resources and services.